ELEKTRO-L 3

Last updated on Wed Sep 17 2025 00:02:35 GMT+0000 (Coordinated Universal Time)

1 44903U 19095A 25259.66140655 -.00000116 00000+0 00000+0 0 9997 2 44903 0.0797 295.7251 0001449 302.1445 72.0760 1.00272462 20966
UTC large
Height (km)
Speed (km/s)
/
Latitude / Longitude
Inclination (degrees)
Orbital Period (minutes)
Azimuth
Elevation
Range (km)
Doppler Factor

Next 0 passes for location: London (51.5072 / 0.1276)

Sorry there are no passes over London.